Location: ??
(35.1714°N, 128.2806°E)
Time: 14:11:46
(UTC+00:00)

Meteor PRIRODA - Pass Details

Date: 29 October 2020
Orbit: 491 x 509 km, 97.6° (Epoch: 01 December)

Event Time Altitude Azimuth Distance (km) Brightness Sun altitude
Rises 21:05:12 0° 2° (N) 2,586 7.2 -9.0°
Reaches altitude 10° 21:07:21 10° 355° (N) 1,701 6.2 -8.6°
Maximum altitude 21:10:46 38° 286° (WNW) 774 4.1 -7.9°
Drops below altitude 10° 21:14:11 10° 217° (SW) 1,700 6.1 -7.2°
Sets 21:16:20 0° 209° (SSW) 2,582 7.1 -6.8°
